"Time","Temp","Dewpoint","Humidity","Pressure","Direction","Speed","Gust","Precip","PrecipRate"
"00:04:57","56.9","55.2","94","30.07","355","0.1","1.2","0.00","0.00"
"00:09:57","56.8","55.1","94","30.07","26","0.3","2","0.00","0.00"
"00:14:58","56.8","55.1","94","30.07","73","0.4","2.3","0.00","0.00"
"00:19:59","56.6","54.9","94","30.06","64","0.4","3","0.00","0.00"
"00:24:56","56.6","54.9","94","30.06","314","0.3","3.5","0.00","0.00"
"00:29:57","56.5","54.9","94.3","30.06","314","0.1","1.2","0.00","0.00"
"00:34:59","56.4","55","95","30.06","314","0.1","1.2","0.00","0.00"
"00:39:57","56.4","55","95","30.06","314","0.3","2.3","0.00","0.00"
"00:44:58","56.3","54.9","95","30.06","314","0.2","2.3","0.00","0.00"
"00:49:59","56.3","54.9","95","30.06","314","0.3","2.3","0.00","0.00"
"00:54:56","56.2","54.8","95","30.06","314","0.2","2.3","0.00","0.00"
"00:59:58","56.2","54.8","95","30.06","314","0.1","1.2","0.00","0.00"
"01:04:58","56.1","54.7","95","30.06","313","0.4","2.3","0.00","0.00"
"01:09:56","56.1","54.7","95","30.06","313","0.3","2.3","0.00","0.00"
"01:14:59","56","54.6","95","30.06","313","0","1","0.00","0.00"
"01:19:56","55.9","54.5","95","30.06","313","0.2","3","0.00","0.00"
"01:24:57","55.8","54.4","95","30.06","360","0","0","0.00","0.00"
"01:29:59","55.7","54.3","95","30.06","360","0","0","0.00","0.00"
"01:34:56","55.6","54.2","95","30.06","360","0","1","0.00","0.00"
"01:39:59","55.5","54.2","95.3","30.06","1","0.4","2.3","0.00","0.00"
"01:44:59","55.5","54.4","96","30.06","5","0.1","1.2","0.00","0.00"
"01:49:56","55.4","54.3","96","30.05","5","0","0","0.00","0.00"
"01:54:58","55.4","54.3","96","30.05","5","0","1","0.00","0.00"
"01:59:56","55.4","54.3","96","30.05","5","0.7","3.5","0.00","0.00"
"02:04:59","55.4","54.3","96","30.05","5","0.6","2.3","0.00","0.00"
"02:09:56","55.3","54.2","96","30.05","5","0","1.2","0.00","0.00"
"02:14:59","55.3","54.2","96","30.05","5","0.5","2.3","0.00","0.00"
"02:19:56","55.3","54.2","96","30.04","5","0.2","2.3","0.00","0.00"
"02:24:57","55.3","54.2","96","30.04","5","0.3","2","0.00","0.00"
"02:29:59","55.2","54.1","96","30.04","5","0.8","2.3","0.00","0.00"
"02:34:57","55.2","54.1","96","30.04","5","0.1","1.2","0.00","0.00"
"02:39:57","55.2","54.1","96","30.04","5","0","0","0.00","0.00"
"02:44:58","55.2","54.1","96","30.05","5","0","0","0.00","0.00"
"02:49:59","55.1","54","96","30.05","5","0.7","3.5","0.00","0.00"
"02:54:56","55.1","54","96","30.05","10","1","3.5","0.00","0.00"
"02:59:56","55","53.9","96","30.05","11","0.6","2.3","0.00","0.00"
"03:04:56","55","53.9","96","30.04","11","0.4","2","0.00","0.00"
"03:09:58","55","54","96.3","30.04","11","0.6","2.3","0.00","0.00"
"03:14:57","55","54","96.5","30.04","26","1.1","3.5","0.00","0.00"
"03:19:58","54.9","54.1","97","30.03","26","1.2","3.5","0.00","0.00"
"03:24:59","54.9","53.9","96.3","30.03","45","1.4","4","0.00","0.00"
"03:29:57","54.8","53.7","96","30.03","79","2","4","0.00","0.00"
"03:34:58","54.7","53.6","96","30.01","84","0.5","3.5","0.00","0.00"
"03:39:56","54.7","53.6","96","30.01","63","0.3","2.3","0.00","0.00"
"03:44:56","54.7","53.8","96.6","30.01","53","0.5","2.3","0.00","0.00"
"03:49:59","54.6","53.7","96.7","30.00","55","0.5","3.5","0.00","0.00"
"03:54:59","54.6","53.8","97","30.00","42","0.4","3.5","0.00","0.00"
"03:59:59","54.6","53.8","97","30.00","53","1.4","4","0.00","0.00"
"04:04:59","54.5","53.7","97","29.99","81","1.4","4","0.00","0.00"
"04:09:57","54.4","53.6","97","29.99","80","0.5","2.3","0.00","0.00"
"04:14:59","54.4","53.6","97","30.01","80","0.2","1.2","0.00","0.00"
"04:19:56","54.4","53.6","97","30.01","80","0.7","3","0.00","0.00"
"04:24:57","54.4","53.6","97","30.01","70","1.2","3.5","0.00","0.00"
"04:29:57","54.4","53.6","97","30.01","59","0.9","2.3","0.00","0.00"
"04:34:58","54.4","53.6","97","30.00","59","0.4","2.3","0.00","0.00"
"04:39:56","54.4","53.6","97","30.00","59","0.1","2.3","0.00","0.00"
"04:44:56","54.4","53.6","97","30.00","59","0.5","2.3","0.00","0.00"
"04:49:57","54.4","53.6","97","30.00","58","0.4","2.3","0.00","0.00"
"04:54:57","54.4","53.6","97","30.00","36","0.7","3.5","0.00","0.00"
"04:59:58","54.4","53.6","97","30.00","35","0.3","2.3","0.00","0.00"
"05:04:59","54.3","53.5","97","30.00","35","0.1","2.3","0.00","0.00"
"05:09:59","54.3","53.5","97","30.00","35","0.1","2.3","0.00","0.00"
"05:14:59","54.3","53.5","97","30.01","35","0","0","0.00","0.00"
"05:19:59","54.2","53.4","97","30.01","35","0.1","1.2","0.00","0.00"
"05:24:56","54.2","53.4","97","30.01","35","0.7","3","0.00","0.00"
"05:29:57","54.2","53.4","97","30.01","36","0.4","2.3","0.00","0.00"
"05:34:54","54.1","53.3","97","30.01","36","0.1","2","0.00","0.00"
"05:39:57","54.1","53.3","97","30.01","36","0.6","2.3","0.00","0.00"
"05:44:58","54.1","53.3","97","30.01","36","0.2","1.2","0.00","0.00"
"05:49:58","54","53.2","97","30.01","36","0.2","1.2","0.00","0.00"
"05:54:59","54","53.2","97","30.01","36","0.1","1.2","0.00","0.00"
"05:59:56","54","53.2","97","30.01","36","0.1","1.2","0.00","0.00"
"06:04:57","53.9","53.1","97","30.01","36","0.4","2.3","0.00","0.00"
"06:09:59","53.9","53.1","97","30.01","36","0.2","1.2","0.00","0.00"
"06:14:59","53.9","53.1","97","30.01","36","0.6","2.3","0.00","0.00"
"06:19:56","53.9","53.1","97","30.01","36","0.2","2.3","0.00","0.00"
"06:24:57","53.9","53.1","97","30.01","36","0.4","2.3","0.00","0.00"
"06:29:58","53.9","53.1","97","30.01","36","0.6","2.3","0.00","0.00"
"06:34:57","54","53.2","97","30.01","36","0","1.2","0.00","0.00"
"06:39:56","53.9","53.1","97","30.01","36","0.1","1.2","0.00","0.00"
"06:44:58","54","53.2","97","30.01","36","0.3","1.2","0.00","0.00"
"06:49:57","54","53.2","97","30.01","36","0","0","0.00","0.00"
"06:54:58","54","53.2","97","30.01","36","0","0","0.00","0.00"
"06:59:59","54","53.2","97","30.02","36","0","0","0.00","0.00"
"07:04:56","54","53.2","97","30.02","36","0.3","2.3","0.00","0.00"
"07:09:57","54","53.2","97","30.02","36","0.1","1.2","0.00","0.00"
"07:14:57","54","53.2","97","30.02","36","0.1","1.2","0.00","0.00"
"07:19:58","54","53.2","97","30.01","36","0.2","1.2","0.00","0.00"
"07:24:58","54","53.3","97.2","30.01","36","0.3","2.3","0.00","0.00"
"07:29:58","54.1","53.4","97.4","30.01","36","0.4","3.5","0.00","0.00"
"07:34:59","54.1","53.5","98","30.01","36","0.4","2","0.00","0.00"
"07:39:57","54.1","53.5","98","30.01","36","0.1","2.3","0.00","0.00"
"07:44:58","54.2","53.6","98","30.02","36","0.1","1.2","0.00","0.00"
"07:49:59","54.2","53.6","98","30.02","36","0.1","2","0.00","0.00"
"07:50:58","54.3","53.7","98","30.02","36","0.7","2.3","0.00","0.00"
"07:59:57","54.3","53.5","97.1","30.02","36","0.3","2.3","0.00","0.00"
"08:04:58","54.4","53.7","97.7","30.02","36","0.2","2.3","0.00","0.00"
"08:09:59","54.4","53.6","97.1","30.02","36","0.2","2","0.00","0.00"
"08:14:57","54.4","53.7","97.4","30.02","36","0.5","2.3","0.00","0.00"
"08:19:57","54.5","53.8","97.4","30.01","36","1.1","3.5","0.00","0.00"
"08:24:59","54.5","53.9","97.7","30.01","36","0.3","1.2","0.00","0.00"
"08:29:59","54.6","54","98","30.01","50","0.8","3","0.00","0.00"
"08:34:56","54.7","54.1","98","30.00","77","0.9","4","0.00","0.00"
"08:39:59","54.7","54.1","98","30.00","75","1","3.5","0.00","0.00"
"08:44:57","54.8","54.2","98","30.00","74","1.2","3","0.00","0.00"
"08:49:57","54.8","54.2","97.9","30.00","75","1.8","3.5","0.00","0.00"
"08:54:57","54.8","54","97","30.00","75","1.7","4","0.00","0.00"
"08:59:57","54.8","54","97","30.01","112","1.4","4","0.00","0.00"
"09:04:56","54.8","54","97","30.01","123","0.4","2.3","0.00","0.00"
"09:09:56","54.9","54.1","97","30.01","123","0.9","3","0.00","0.00"
"09:14:59","55","54.2","97","30.01","123","1.8","3.5","0.00","0.00"
"09:19:56","55","54.2","97","30.01","115","1.4","3.5","0.00","0.00"
"09:24:57","55.1","54.3","97.3","30.01","139","1.1","3.5","0.00","0.00"
"09:29:52","55.1","54.3","97","30.01","136","0.7","2.3","0.00","0.00"
"09:36:22","55.3","54.7","98","30.01","137","0.1","1.2","0.00","0.00"
"09:44:56","55.4","54.8","98","30.01","137","1.1","2.3","0.00","0.00"
"09:49:56","55.5","54.8","97.5","30.01","138","0.6","2.3","0.00","0.00"
"09:54:52","55.6","54.9","97.7","30.01","138","0.7","3","0.00","0.00"
"09:59:59","55.7","55.1","97.8","30.01","146","1.4","4","0.00","0.00"
"10:04:59","55.8","55","97.2","30.01","131","1.1","4","0.00","0.00"
"10:09:59","55.9","55.3","98","30.01","133","1.4","3.5","0.00","0.00"
"10:14:57","56","55.3","97.5","30.01","134","0.6","2.3","0.00","0.00"
"10:19:57","56.1","55.4","97.4","30.01","134","1","2.3","0.00","0.00"
"10:24:57","56.2","55.4","97","30.01","134","0.4","2.3","0.00","0.00"
"10:29:57","56.3","55.5","97","30.02","134","1","3","0.00","0.00"
"10:34:57","56.4","55.7","97.7","30.02","134","0.9","3.5","0.00","0.00"
"10:39:58","56.4","55.6","97","30.02","134","0.3","3.5","0.01","0.01"
"10:44:59","56.5","55.7","97","30.02","134","1.8","3.5","0.01","0.01"
"10:49:59","56.6","55.8","97","30.01","141","1.6","3.5","0.01","0.01"
"10:54:58","56.6","55.8","97","30.01","151","1.4","3.5","0.01","0.01"
"10:59:54","56.8","56","97","30.01","135","0.7","4","0.01","0.01"
"11:04:57","56.9","56.1","97","30.01","151","1.9","4","0.01","0.01"
"11:09:58","57","56.2","97","30.01","117","1.9","4","0.01","0.01"
"11:14:56","57.4","56.6","97.2","30.01","108","1.4","4","0.01","0.01"
"11:19:56","57.7","56.9","97","30.01","111","1.3","3.5","0.01","0.01"
"11:20:52","57.9","57.1","97","30.01","116","2","3.5","0.01","0.01"
"11:29:57","58.1","57.1","96.3","30.01","112","1.2","4","0.01","0.01"
"11:34:56","58.1","56.7","95.1","30.01","110","2.1","4","0.01","0.01"
"11:39:57","57.9","56.6","95.3","30.01","109","2.7","4","0.01","0.01"
"11:44:56","57.8","56.4","95","30.01","109","2.7","4","0.01","0.00"
"11:49:56","57.8","56.6","95.7","30.00","116","1.7","3.5","0.01","0.00"
"11:54:59","57.9","56.8","96","30.00","136","1.2","4","0.01","0.00"
"11:59:59","58.1","57","96","30.00","184","1.4","4","0.01","0.00"
"12:04:59","58.3","57.1","95.9","30.00","114","2.6","6","0.01","0.00"
"12:09:59","58.4","57.3","95.8","30.00","124","2.1","5","0.01","0.00"
"12:15:59","58.5","57.1","95","30.00","142","2.3","3.5","0.01","0.00"
"12:24:56","58.8","57.6","95.7","30.00","147","1.5","4","0.01","0.00"
"12:29:59","59.4","58.2","95.8","30.00","192","2.3","4","0.01","0.00"
"12:34:59","59.8","58.4","94.8","29.98","131","1.4","4","0.01","0.00"
"12:39:59","60.2","58.6","94.4","29.98","122","2","5","0.01","0.00"
"12:44:59","60.6","58.5","92.6","29.98","155","2.1","4.6","0.01","0.00"
"12:49:58","60.8","58.5","92.2","29.98","191","2.7","6","0.01","0.00"
"12:54:58","60.8","58.2","91","29.98","159","2.2","6","0.01","0.00"
"12:59:58","60.9","58.4","91.2","29.98","126","2.4","7","0.01","0.00"
"13:04:58","61.3","58.8","91.3","29.97","140","1.4","5","0.01","0.00"
"13:09:58","61.9","59","90.2","29.97","165","2.2","5","0.01","0.00"
"13:14:57","62.4","59.3","89.7","29.97","195","3.3","6","0.01","0.00"
"13:19:56","62.7","59.3","88.8","29.96","132","3","7","0.01","0.00"
"13:24:56","62.6","58.7","87","29.96","119","2.9","6.9","0.01","0.00"
"13:29:59","62.3","58.5","87.1","29.96","140","2.9","6","0.01","0.00"
"13:34:56","62.2","58.3","86.9","29.96","158","2","5","0.01","0.00"
"13:39:57","62.3","58.7","87.8","29.96","175","2.7","7","0.01","0.00"
"13:44:56","62.6","58.6","86.7","29.96","155","3.1","7","0.01","0.00"
"13:49:59","62.7","58.9","87.5","29.95","201","4","7","0.01","0.00"
"13:54:59","62.5","58.6","87","29.95","195","4","7","0.01","0.00"
"13:59:58","62.5","58.9","88","29.95","218","3.2","3.5","0.01","0.00"
"14:04:57","62.6","58.9","87.6","29.95","174","2.3","7","0.01","0.00"
"14:09:58","62.7","58.5","86.2","29.95","163","2.3","6.9","0.01","0.00"
"14:14:59","62.7","58.7","86.5","29.95","167","1.7","4","0.01","0.00"
"14:15:58","62.9","59","87","29.93","189","0.7","2.3","0.01","0.00"
"14:24:57","63.1","58.5","85.2","29.93","160","2.2","6","0.01","0.00"
"14:29:56","63.3","58.8","85.3","29.93","149","2.5","7","0.01","0.00"
"14:34:59","63.4","58.8","85","29.92","145","3.1","8.1","0.01","0.00"
"14:39:56","63.7","59.1","84.9","29.92","193","1.8","5.8","0.01","0.00"
"14:44:59","64","59.3","84.8","29.92","195","2.6","4.6","0.01","0.00"
"14:49:58","64.1","59.3","84.2","29.92","166","3","6","0.01","0.00"
"14:54:56","64.3","59.4","83.9","29.92","176","2.9","7","0.01","0.00"
"14:59:59","64.4","59.1","82.8","29.92","159","2.3","6.9","0.01","0.00"
"15:04:55","64.6","58.6","81.1","29.91","161","2.8","6","0.01","0.00"
"15:09:59","64.6","59.1","82.5","29.91","185","2.7","7","0.01","0.00"
"15:14:56","64.6","59.2","82.5","29.91","142","2.7","6","0.01","0.00"
"15:19:59","64.7","59.2","82.4","29.90","162","2.4","5","0.01","0.00"
"15:24:58","65","59.6","82.7","29.90","187","3.7","10.4","0.01","0.00"
"15:29:57","64.9","59","81.2","29.90","187","3.1","6.9","0.01","0.00"
"15:34:56","64.8","59.1","81.6","29.90","170","1.7","4","0.01","0.00"
"15:39:57","64.9","59.2","81.9","29.90","138","3.7","9","0.01","0.00"
"15:44:56","64.8","59","81.5","29.90","157","2.7","6","0.01","0.00"
"15:49:59","64.6","58.8","81.4","29.89","166","3.4","8","0.01","0.00"
"15:54:58","64.6","58.9","81.9","29.89","178","2.8","7","0.01","0.00"
"15:59:57","64.9","59.5","82.5","29.89","164","3","6","0.01","0.00"
"16:04:56","65.5","59.5","81.2","29.87","198","3.5","9.2","0.01","0.00"
"16:09:57","66","59.7","80.1","29.87","151","2.6","5","0.01","0.00"
"16:14:57","66.5","59.5","78.3","29.87","128","2.8","6","0.01","0.00"
"16:19:56","66.8","59.7","77.9","29.87","150","3.4","7","0.01","0.00"
"16:24:59","67.1","59.4","76.5","29.87","118","2.5","7","0.01","0.00"
"16:29:58","67.2","59.3","76","29.87","128","3.2","6","0.01","0.00"
"16:34:57","67.1","59.4","76.6","29.86","121","2.7","5.8","0.01","0.00"
"16:39:58","67.1","59","75.5","29.86","128","2.5","6","0.01","0.00"
"16:44:57","67.1","59.5","76.5","29.86","149","2","5.8","0.01","0.00"
"16:49:56","67.4","59.7","76.4","29.86","154","2.3","6","0.01","0.00"
"16:54:59","67.5","59.2","75","29.86","98","3.5","6","0.01","0.00"
"16:59:57","67.4","59.3","75.2","29.86","140","1.8","5","0.01","0.00"
"17:04:56","67.6","59.4","75.2","29.85","113","2.8","5","0.01","0.00"
"17:09:56","67.6","59.7","75.7","29.85","96","1.9","4","0.01","0.00"
"17:14:57","67.6","59.5","75.2","29.85","93","2.3","7","0.01","0.00"
"17:19:56","67.5","59.4","75.2","29.84","108","2.5","5","0.01","0.00"
"17:24:59","67.5","59.4","75.3","29.84","124","1.9","4","0.01","0.00"
"17:29:58","67.8","59.8","75.7","29.84","161","2.1","4","0.01","0.00"
"17:34:58","67.9","59.6","74.6","29.83","163","1.7","3.5","0.01","0.00"
"17:39:58","68.2","60.4","76","29.83","169","2.5","4","0.01","0.00"
"17:44:58","68.4","60","74.3","29.83","217","1.6","4","0.01","0.00"
"17:49:57","68.4","60.1","74.7","29.83","211","2.9","5","0.01","0.00"
"17:54:57","68.1","59.4","73.5","29.83","196","1.6","4","0.01","0.00"
"17:59:56","68.1","59.6","74.3","29.83","187","0.8","2.3","0.01","0.00"
"18:04:56","68","59.7","74.7","29.82","130","1.4","3.5","0.01","0.00"
"18:09:58","67.9","59.9","75.5","29.82","130","0","1.2","0.01","0.00"
"18:14:59","67.8","59.4","74.5","29.82","110","0.6","3.5","0.01","0.00"
"18:19:58","67.7","59.2","74.2","29.81","110","0.7","3.5","0.01","0.00"
"18:24:58","67.6","59.2","74.4","29.81","110","0.5","2.3","0.01","0.00"
"18:29:58","67.6","59.5","75.4","29.81","110","0.1","1.2","0.01","0.00"
"18:34:58","67.6","59.5","75.3","29.79","110","0.5","2.3","0.01","0.00"
"18:39:59","67.5","59.4","75.3","29.79","110","0.6","2.3","0.01","0.00"
"18:44:59","67.4","59.3","75.3","29.79","110","0.2","1.2","0.01","0.00"
"18:49:58","67.4","59.2","75","29.79","110","0.2","2.3","0.01","0.00"
"18:54:58","67.3","59.1","75","29.79","110","0.1","2.3","0.01","0.00"
"18:59:58","67.2","59","75","29.79","110","0.3","2","0.01","0.00"
"19:04:58","67","59.2","75.8","29.78","110","0.1","2.3","0.01","0.00"
"19:09:58","66.9","59.1","76","29.78","110","0","0","0.01","0.00"
"19:14:57","66.7","59.3","76.9","29.78","110","0.1","1.2","0.01","0.00"
"19:19:57","66.5","59.1","77","29.78","110","0.2","1.2","0.01","0.00"
"19:24:57","66.3","58.9","77","29.78","108","0.2","2.3","0.01","0.00"
"19:29:59","66","58.8","78","29.78","107","0.1","2","0.01","0.00"
"19:30:58","65.7","58.7","78","29.76","106","1.2","2.3","0.01","0.00"
"19:39:57","65.3","58.6","79","29.76","74","0.2","1.2","0.01","0.00"
"19:44:58","65","58.7","80","29.76","68","0.2","1.2","0.01","0.00"
"19:49:57","64.6","58.6","80.8","29.76","66","0","1.2","0.01","0.00"
"19:54:57","64.1","58.8","83","29.76","66","0.5","2.3","0.01","0.00"
"19:59:58","63.7","58.4","83","29.76","61","0.2","2.3","0.01","0.00"
"20:04:58","63.3","58","83.1","29.76","60","0","1.2","0.01","0.00"
"20:09:56","63","58.1","84","29.76","60","0","0","0.01","0.00"
"20:14:59","62.7","58.1","84.9","29.76","60","0","0","0.01","0.00"
"20:19:58","62.5","57.9","85","29.76","60","0","0","0.01","0.00"
"20:24:59","62.3","57.8","85.2","29.76","60","0","1.2","0.01","0.00"
"20:25:58","62.2","58","86","29.76","60","0","0","0.01","0.00"
"20:34:59","61.8","57.9","87","29.75","60","0","1.2","0.01","0.00"
"20:39:57","61.6","57.7","87","29.75","60","0","0","0.01","0.00"
"20:44:57","61.5","57.8","87.7","29.75","60","0.7","2.3","0.01","0.00"
"20:49:57","61.2","57.7","88.1","29.75","61","0","1.2","0.01","0.00"
"20:54:56","61.1","57.8","89","29.75","60","0.5","3.5","0.01","0.00"
"20:59:56","61","57.7","89.2","29.75","60","0.4","3.5","0.01","0.00"
"21:04:56","60.9","57.6","89","29.75","70","0.7","3.5","0.01","0.00"
"21:09:57","61.1","57.8","89","29.75","88","0.8","3.5","0.01","0.00"
"21:14:58","61.3","57.7","88","29.75","88","0.3","2","0.01","0.00"
"21:19:57","61.5","57.9","88","29.75","88","1.1","2.3","0.01","0.00"
"21:24:58","61.8","58","87.3","29.75","88","1.1","4","0.01","0.00"
"21:29:57","62.2","58.2","86.6","29.75","92","1.9","5","0.01","0.00"
"21:34:56","62.6","58.3","85.7","29.75","92","2.2","5","0.01","0.00"
"21:39:57","63","58.3","84.7","29.75","93","1.6","4","0.01","0.00"
"21:44:57","63.3","58.2","83.6","29.75","101","2.1","5","0.01","0.00"
"21:49:57","63.6","58.3","83","29.75","109","1.2","4.6","0.01","0.00"
"21:54:56","63.7","58.2","82.3","29.75","117","1.7","6","0.01","0.00"
"21:59:55","63.9","58.3","82","29.75","121","1.7","5","0.01","0.00"
"22:04:59","64","58.1","81.1","29.74","97","1.8","5","0.01","0.00"
"22:09:59","64.2","58.2","81","29.74","90","1.2","4","0.01","0.00"
"22:14:56","64.2","58.2","81","29.74","105","1.6","4","0.01","0.00"
"22:19:59","64.3","58","80.2","29.74","105","2.3","5","0.01","0.00"
"22:24:59","64.3","58.1","80.5","29.74","100","1.6","4","0.01","0.00"
"22:29:59","64.2","58.2","81","29.74","100","1.6","4","0.01","0.00"
"22:34:59","64","58.2","81.2","29.73","95","2.6","7","0.01","0.00"
"22:39:59","63.9","58.2","81.7","29.73","110","2.7","6","0.01","0.00"
"22:44:59","63.7","58.1","82","29.73","105","2.8","6","0.01","0.00"
"22:49:58","63.5","58.1","82.6","29.72","96","1.3","5","0.01","0.00"
"22:54:58","63.3","58","83","29.72","102","1.4","5","0.01","0.00"
"22:59:58","63.2","58","83.2","29.72","115","1.5","4.6","0.01","0.00"
"23:04:57","63.1","58","83.6","29.72","110","2.3","4","0.02","0.01"
"23:09:58","62.9","58","84","29.72","116","2.3","5","0.02","0.01"
"23:14:59","62.7","57.8","84","29.72","127","1.5","3.5","0.02","0.01"
"23:19:59","62.6","57.9","84.8","29.72","121","2","4","0.02","0.01"
"23:24:59","62.4","57.9","85.2","29.72","129","0.7","3.5","0.02","0.01"
"23:29:58","62.3","58.1","86","29.73","143","1","3.5","0.02","0.01"
"23:34:57","62.1","58.1","86.6","29.73","154","1.7","4","0.06","0.04"
"23:39:58","61.8","58.1","87.8","29.73","166","1.4","4","0.08","0.07"
"23:44:58","61.5","58.1","88.8","29.73","150","1.4","3.5","0.10","0.09"
"23:49:57","61.2","58.2","89.8","29.72","125","2.4","6","0.11","0.10"
"23:54:57","60.9","58.2","90.7","29.72","96","2","6","0.11","0.10"
"23:59:57","60.7","58.2","91.2","29.72","88","2.2","5","0.11","0.10"
